{"data":{"norad_id":56414,"epoch":"2026-05-25T04:35:01.764096Z","epoch_age_seconds":54687,"freshness":"FRESH","line1":"1 56414U 23061AS  26145.19099264  .00000448  00000+0  25815-4 0  9990","line2":"2 56414  43.0031 115.0577 0001166 267.9300  92.1418 15.27566729168572","mean_motion":15.27566729,"eccentricity":0.0001166,"inclination_deg":43.0031,"raan_deg":115.0577,"arg_perigee_deg":267.93,"mean_anomaly_deg":92.1418,"bstar":2.5815e-5,"rev_number":16857,"period_min":94.267567672325,"perigee_km":482.28881554326,"apogee_km":483.88885340786,"semimajor_km":6861.2258344756,"source":"CELESTRAK","updated_at":"2026-05-25T13:38:18.061707Z"}}